Погода в Акбюке

Турция     40°58′28″N   33°52′51″E
темп.,
°C
ветер,
м/с
пор.,
м/с
влажн.,
%
обл.,
%
осадки,
мм/ч
давл.,
гПа
погр.,
м
8 августа, пн
пн800:00+16ссв12854 0.0 101021
03:00+15ссв12883 0.0 101117
06:00+14ссв12790 0.0 101115
09:00+20св22460 0.0 1011574
12:00+25всв22330 0.0 10101694
15:00+27всв32271 0.0 10082466
18:00+26в432912 0.0 10081821
21:00+19св34640 0.0 101159
9 августа, вт
вт900:00+17св22690 0.0 101227
03:00+15ссв11600 0.0 101211
06:00+15с11520 0.0 101111
09:00+21всв22332 0.0 1010469
12:00+25в22260 0.0 10091561
15:00+28в21245 0.0 10072502
18:00+27ссв322815 0.0 10061981
21:00+19св23550 0.0 100949
10 августа, ср
ср1000:00+17ссв12630 0.0 101014
03:00+17ссз11600 0.0 100913
06:00+16с11610 0.0 100915
09:00+22св11400 0.0 1008565
12:00+27в12290 0.0 10071891
15:00+29с132734 0.0 10052765
18:00+25сз684191 0.0 10071060
21:00+19ссз22622 0.1 100923
11 августа, чт
чт1100:00+17ссз225834 0.0 100924
03:00+16ссз225466 0.0 100920
06:00+15ссз21585 0.0 101016
09:00+21с11468 0.0 1010561
12:00+26всв02335 0.0 10081748
15:00+28с242997 0.0 10072580
18:00+26с34355 0.1 10081086
21:00+20с32652 0.1 101132
12 августа, пт
пт1200:00+18ссз22750 0.0 101123
03:00+17ссз11770 0.0 101118
06:00+16ссз11775 0.0 101216
09:00+22св125478 0.0 1011483
12:00+26в22415 0.0 10091226
15:00+29с113225 0.0 10082109
18:00+27св344240 0.0 1009716
21:00+21ссв23644 0.1 101138